Iowa Falls, IA

7:51 AM CST on December 08, 2019 (GMT -0600)
Iowa Falls Municipal

Weather History for KIFA - October, 2019

Change the Weather History Date:

Wednesday, October 30, 2019

  Actual Average Record
Temperature  
Mean Temperature 33 °F -  
Max Temperature 36 °F 55 °F 85 °F (1950)
Min Temperature 30 °F 36 °F 15 °F (1988)
Degree Days  
Heating Degree Days 32    
Moisture  
Dew Point 17 °F    
Average Humidity 53    
Maximum Humidity 71    
Minimum Humidity 37    
Precipitation  
Precipitation 0.00 in - - ()
Sea Level Pressure  
Sea Level Pressure 30.28 in    
Wind  
Wind Speed 7 mph ()    
Max Wind Speed 13 mph    
Max Gust Speed 17 mph    
Visibility 9.4 miles    
Events Snow    
Averages and records for this station are not official NWS values.
T = Trace of Precipitation, MM = Missing Value Source: Averaged Metar Reports

Daily Weather History Graph

Daily Weather History Graph

Search for Another Location

Airport or City:

Astronomy

Oct. 30, 2019 Rise Set
Actual Time 7:43 AM CDT 6:08 PM CDT
Civil Twilight 7:14 AM CDT 6:38 PM CDT
Nautical Twilight 6:41 AM CDT 7:11 PM CDT
Astronomical Twilight 6:08 AM CDT 7:43 PM CDT
Moon 10:30 AM CDT (10/30) 8:14 PM CDT (10/30)
Length of Visible Light 11h 23m
Length of Day
10h 25m
Waxing Crescent, 9% of the Moon is Illuminated
Oct 30
Waxing Crescent
Nov 4
First Quarter
Nov 12
Full
Nov 19
Last Quarter
Nov 26
New

Hourly Weather History & Observations

Time (CDT) Temp. Windchill Dew Point Humidity Pressure Visibility Wind Dir Wind Speed Gust Speed Precip Events Conditions
12:15 AM 35.1 °F 30.1 °F 20.7 °F 56% 30.33 in 10.0 mi North 5.8 mph - N/A   Overcast
12:35 AM 34.9 °F 30.8 °F 20.5 °F 56% 30.34 in 10.0 mi North 4.6 mph - N/A   Overcast
12:55 AM 34.7 °F 30.6 °F 21.0 °F 57% 30.33 in 10.0 mi North 4.6 mph - N/A   Overcast
1:15 AM 34.3 °F 31.4 °F 20.8 °F 58% 30.33 in 10.0 mi North 3.5 mph - N/A   Overcast
1:35 AM 34.2 °F 30.0 °F 20.1 °F 57% 30.33 in 10.0 mi North 4.6 mph - N/A   Overcast
2:15 AM 33.8 °F 28.6 °F 19.8 °F 56% 30.33 in 10.0 mi North 5.8 mph - N/A   Overcast
2:35 AM 33.8 °F 27.7 °F 19.2 °F 55% 30.33 in 10.0 mi North 6.9 mph - N/A   Overcast
2:55 AM 33.3 °F 25.7 °F 19.2 °F 56% 30.34 in 10.0 mi North 9.2 mph - N/A   Overcast
3:15 AM 33.1 °F 26.1 °F 18.7 °F 56% 30.33 in 10.0 mi North 8.1 mph - N/A   Scattered Clouds
3:35 AM 32.9 °F 28.5 °F 18.5 °F 55% 30.32 in 10.0 mi North 4.6 mph - N/A   Clear
3:55 AM 32.5 °F 27.1 °F 18.1 °F 55% 30.33 in 10.0 mi North 5.8 mph - N/A   Mostly Cloudy
4:15 AM 32.4 °F 26.0 °F 17.2 °F 54% 30.33 in 10.0 mi North 6.9 mph - N/A   Overcast
4:35 AM 32.2 °F 25.8 °F 18.9 °F 58% 30.33 in 10.0 mi North 6.9 mph - N/A   Overcast
4:55 AM 32.0 °F 24.8 °F 19.2 °F 59% 30.33 in 10.0 mi North 8.1 mph - N/A   Overcast
5:15 AM 32.0 °F 24.2 °F 17.6 °F 55% 30.34 in 10.0 mi North 9.2 mph - N/A   Overcast
5:35 AM 32.0 °F 24.2 °F 15.8 °F 51% 30.34 in 10.0 mi North 9.2 mph - N/A   Overcast
5:55 AM 31.8 °F 24.6 °F 15.8 °F 52% 30.35 in 10.0 mi North 8.1 mph - N/A   Overcast
6:15 AM 31.6 °F 22.6 °F 13.5 °F 47% 30.35 in 10.0 mi North 11.5 mph - N/A   Overcast
6:35 AM 31.3 °F 23.3 °F 16.5 °F 54% 30.34 in 10.0 mi NNW 9.2 mph - N/A   Overcast
6:55 AM 31.1 °F 24.5 °F 16.0 °F 54% 30.34 in 10.0 mi North 6.9 mph - N/A   Overcast
7:15 AM 30.9 °F 23.5 °F 15.4 °F 53% 30.34 in 10.0 mi North 8.1 mph - N/A   Overcast
7:35 AM 30.7 °F 24.9 °F 14.0 °F 50% 30.34 in 10.0 mi North 5.8 mph - N/A   Overcast
7:55 AM 30.7 °F 24.1 °F 13.6 °F 49% 30.33 in 10.0 mi North 6.9 mph - N/A   Overcast
8:15 AM 30.7 °F 24.1 °F 14.0 °F 50% 30.34 in 10.0 mi North 6.9 mph - N/A   Overcast
8:35 AM 30.7 °F 26.0 °F 13.5 °F 49% 30.35 in 10.0 mi North 4.6 mph - N/A   Overcast
8:55 AM 30.9 °F 23.5 °F 13.1 °F 48% 30.36 in 10.0 mi North 8.1 mph - N/A   Overcast
9:15 AM 31.1 °F 24.5 °F 12.2 °F 46% 30.36 in 10.0 mi North 6.9 mph - N/A   Overcast
9:35 AM 31.1 °F 23.1 °F 13.6 °F 48% 30.36 in 10.0 mi North 9.2 mph - N/A   Overcast
9:55 AM 31.1 °F 23.1 °F 12.9 °F 47% 30.36 in 10.0 mi North 9.2 mph - N/A   Overcast
10:15 AM 31.6 °F 25.1 °F 12.7 °F 46% 30.36 in 10.0 mi North 6.9 mph - N/A   Overcast
10:35 AM 31.3 °F 22.7 °F 13.1 °F 47% 30.36 in 10.0 mi North 10.4 mph 17.3 mph N/A   Overcast
10:55 AM 31.1 °F 22.4 °F 15.8 °F 53% 30.36 in 10.0 mi North 10.4 mph - N/A Snow Light Snow
11:15 AM 30.2 °F 21.3 °F 18.0 °F 60% 30.36 in 7.0 mi NNW 10.4 mph - N/A Snow Light Snow
11:35 AM 30.2 °F 23.4 °F 19.6 °F 65% 30.35 in 5.0 mi North 6.9 mph - N/A Snow Light Snow
11:55 AM 30.4 °F 22.9 °F 20.8 °F 68% 30.34 in 3.0 mi North 8.1 mph - N/A Snow Light Snow
12:15 PM 30.2 °F 21.9 °F 21.0 °F 69% 30.33 in 4.0 mi NNW 9.2 mph - N/A Snow Light Snow
12:35 PM 30.2 °F 22.6 °F 21.4 °F 70% 30.33 in 4.0 mi NNW 8.1 mph - N/A Snow Light Snow
12:55 PM 30.4 °F 22.2 °F 21.9 °F 71% 30.32 in 5.0 mi NNW 9.2 mph - N/A Snow Light Snow
1:15 PM 30.7 °F 22.6 °F 21.6 °F 69% 30.31 in 5.0 mi NNW 9.2 mph - N/A Snow Light Snow
1:35 PM 31.5 °F 24.2 °F 21.9 °F 68% 30.29 in 7.0 mi NNW 8.1 mph - N/A Snow Light Snow
1:55 PM 32.2 °F 24.4 °F 21.0 °F 63% 30.27 in 10.0 mi NNW 9.2 mph - N/A   Overcast
2:15 PM 33.4 °F 25.9 °F 19.6 °F 57% 30.26 in 10.0 mi North 9.2 mph - N/A   Overcast
2:35 PM 35.6 °F 28.0 °F 14.5 °F 42% 30.25 in 10.0 mi NNW 10.4 mph - N/A   Overcast
2:55 PM 36.1 °F 27.7 °F 11.8 °F 37% 30.24 in 10.0 mi NW 12.7 mph - N/A   Overcast
3:15 PM 35.8 °F 28.3 °F 12.0 °F 38% 30.23 in 10.0 mi NW 10.4 mph 16.1 mph N/A   Overcast
3:35 PM 34.7 °F 27.5 °F 12.6 °F 40% 30.23 in 10.0 mi North 9.2 mph - N/A   Overcast
3:55 PM 34.2 °F 26.2 °F 12.9 °F 42% 30.22 in 10.0 mi NNW 10.4 mph - N/A   Overcast
4:15 PM 34.3 °F 27.0 °F 12.9 °F 41% 30.22 in 10.0 mi NNW 9.2 mph - N/A   Overcast
4:35 PM 34.2 °F 28.2 °F 13.1 °F 42% 30.22 in 10.0 mi NNW 6.9 mph - N/A   Overcast
4:55 PM 34.2 °F 26.2 °F 12.9 °F 42% 30.22 in 10.0 mi NNW 10.4 mph - N/A   Overcast
5:35 PM 32.9 °F 26.7 °F 13.8 °F 45% 30.21 in 10.0 mi NNW 6.9 mph - N/A   Overcast
5:55 PM 32.4 °F 24.0 °F 14.4 °F 48% 30.21 in 10.0 mi NNW 10.4 mph - N/A   Overcast
6:15 PM 32.0 °F 24.8 °F 14.4 °F 48% 30.21 in 10.0 mi NNW 8.1 mph - N/A   Overcast
6:35 PM 32.0 °F 25.6 °F 14.7 °F 49% 30.20 in 10.0 mi NNW 6.9 mph - N/A   Overcast
7:15 PM 31.6 °F 27.0 °F 15.3 °F 51% 30.20 in 10.0 mi NNW 4.6 mph - N/A   Overcast
7:35 PM 31.6 °F 26.0 °F 15.6 °F 52% 30.19 in 10.0 mi NNW 5.8 mph - N/A   Overcast
7:55 PM 31.6 °F 25.1 °F 15.6 °F 52% 30.19 in 10.0 mi NNW 6.9 mph - N/A   Overcast
8:15 PM 31.6 °F 23.7 °F 15.8 °F 52% 30.19 in 10.0 mi NNW 9.2 mph - N/A   Overcast
8:35 PM 31.6 °F 24.4 °F 15.8 °F 52% 30.19 in 10.0 mi NNW 8.1 mph - N/A   Overcast
8:55 PM 31.5 °F 24.9 °F 15.6 °F 52% 30.18 in 10.0 mi NNW 6.9 mph - N/A   Overcast
9:15 PM 31.1 °F 24.5 °F 15.4 °F 52% 30.18 in 10.0 mi NNW 6.9 mph - N/A   Overcast
9:35 PM 31.1 °F 25.4 °F 15.8 °F 53% 30.19 in 10.0 mi NNW 5.8 mph - N/A   Overcast
9:55 PM 31.1 °F 24.5 °F 16.2 °F 54% 30.19 in 10.0 mi NNW 6.9 mph - N/A   Overcast
10:15 PM 31.1 °F 24.5 °F 16.3 °F 54% 30.19 in 10.0 mi NNW 6.9 mph - N/A   Overcast
10:35 PM 31.1 °F 24.5 °F 16.3 °F 54% 30.18 in 10.0 mi North 6.9 mph - N/A   Overcast
10:55 PM 31.1 °F 24.5 °F 16.2 °F 54% 30.18 in 10.0 mi NNW 6.9 mph - N/A   Overcast
11:15 PM 30.7 °F 21.4 °F 17.4 °F 58% 30.18 in 10.0 mi NNW 11.5 mph - N/A Snow Light Snow
11:35 PM 30.2 °F 21.9 °F 18.1 °F 61% 30.18 in 10.0 mi NNW 9.2 mph - N/A   Overcast
11:55 PM 30.2 °F 21.9 °F 18.1 °F 61% 30.17 in 7.0 mi NNW 9.2 mph - N/A Snow Light Snow